Content
SEND FEEDBACK

Daily
Averages
Monthly
Summary
United States of America

PUT IN BAY, OHIO


Home > North America > United States > Ohio
Elevation: 561 feet     Latitude: 41 39N     Longitude: 082 48W

WEATHER
 
SELECT A DAY
Number of Records: 124,957;   Date Range: 12/10/00 - 10/29/14
 
SHARE

PRINT THIS DATA

[ ← Previous Day ]
WEATHER ALMANAC - AUGUST 15, 2014
[ Next Day → ]
[ °C ]   °F
Weather ElementAverageHighLow
Temperature61 °F72.1 °F (3:00 pm)50.4 °F (7:00 am)
Dewpoint47.7 °F53 °F (8:00 pm)44.2 °F (11:00 am)
Humidity62 %81 % (7:00 am)38 % (6:00 pm)
Barometer30.00 in30.04 in (9:00 am)29.95 in (4:00 am)
Wind Speed4.4 mph8.1 mph (12:00 pm)
Weather ElementAverage
Wind DirectionWNW (280.4 °)

Weather ElementTotal
Precipitation---
Heating Degree Days3.8 (Base 65)
Growing Degree Days11.3 (Base 50)
Averaged from 26 records on August 15, 2014
WEATHER CONDITIONS BREAKOUT
WIND DIRECTION BREAKOUT
WEATHER BY HOUR - AUGUST 15, 2014
[ °C ]   °F
Local TimeTemperatureDewpointHumidityBarometerVisibilityWind DirectionWind SpeedGust SpeedPrecipitationEventsConditions
12:00 AM58.8 °F45.5 °F61 %29.98 inWNW (290°)3.5 mph
2:00 AM55.0 °F47.0 °F66 %29.99 inNW (320°)2.3 mph
2:00 AM54.7 °F46.8 °F75 %29.99 inNW (320°)2.3 mph
3:00 AM54.1 °F46.8 °F76 %29.99 inNW (310°)2.3 mph
4:00 AM51.6 °F45.3 °F79 %29.98 inNNW (330°)2.3 mph
5:00 AM51.4 °F44.8 °F78 %30.00 inNW (320°)3.5 mph
6:00 AM51.6 °F44.6 °F77 %30.01 inWNW (290°)3.5 mph
7:00 AM50.4 °F44.6 °F81 %30.02 inNW (320°)2.3 mph
8:00 AM53.0 °F46.0 °F70 %30.02 inNNW (330°)2.3 mph
8:00 AM52.9 °F46.0 °F78 %30.02 inNNW (330°)2.3 mph
9:00 AM56.3 °F45.5 °F67 %30.04 inNW (320°)3.5 mph
10:00 AM60.8 °F46.8 °F60 %30.04 inNW (310°)4.6 mph
11:00 AM63.3 °F44.2 °F50 %30.04 inNW (310°)4.6 mph
12:00 PM66.7 °F45.1 °F46 %30.03 inWNW (290°)5.8 mph
1:00 PM66.7 °F45.5 °F46 %30.03 inWest (270°)8.1 mph
2:00 PM69.0 °F50.0 °F39 %30.01 inSW (230°)8.1 mph
2:00 PM69.1 °F49.6 °F50 %30.01 inSW (230°)8.1 mph
3:00 PM72.1 °F45.0 °F38 %30.00 inWest (280°)8.1 mph
4:00 PM69.8 °F50.0 °F49 %29.99 inSSW (210°)6.9 mph
5:00 PM70.5 °F50.7 °F49 %29.98 inSSW (210°)6.9 mph
6:00 PM71.2 °F49.1 °F45 %29.96 inSW (230°)5.8 mph
8:00 PM67.0 °F53.0 °F50 %29.95 inWSW (250°)3.5 mph
8:00 PM66.9 °F52.5 °F60 %29.95 inWSW (250°)3.5 mph
9:00 PM62.1 °F52.7 °F71 %29.95 inWSW (250°)3.5 mph
10:00 PM60.4 °F51.6 °F73 %29.96 inSW (230°)2.3 mph
11:00 PM59.4 °F52.7 °F79 %29.96 inWest (260°)3.5 mph
Hourly data recorded from CXHA, located miles away from Put In Bay, Ohio







STORIES FROM OUR PARTNERS